Weather Roundup
Issued by NWS Chicago, IL

Home | Current Version | Previous Version | Graphics & Text | Print | Product List | Glossary On
Versions: 1 2 3 4 5 6 7 8 9 10 11 12 13 14 15 16 17 18 19 20 21 22 23 24 25 26 27 28 29 30 31 32 33 34 35 36 37 38 39 40 41 42 43 44 45 46 47 48 49 50
000
NZUS59 KLOT 220808
HRRLOT

CHICAGO AREA WEATHER ROUNDUP
NATIONAL WEATHER SERVICE CHICAGO/ROMEOVILLE IL
300 AM CDT TUE AUG 22 2017

NOTE: "FAIR" INDICATES FEW OR NO CLOUDS BELOW 12,000 FEET WITH NO
SIGNIFICANT WEATHER AND/OR OBSTRUCTIONS TO VISIBILITY.

* THESE STATIONS ARE NOT UNDER NWS QUALITY CONTROL. THEY ALSO MAY NOT
  REPORT WEATHER SUCH AS PRECIPITATION OR FOG.

ILZ005-006-012>014-019>023-220900-
NORTHEAST ILLINOIS

CITY           SKY/WX    TMP DP  RH WIND       PRES   REMARKS
OHARE          CLOUDY    75  70  84 SW13G22   29.86R
MIDWAY         CLOUDY    73  69  87 SW13      29.87R
AURORA         CLOUDY    73  72  96 SW12      29.89R
LANSING*       CLOUDY    71  66  85 S13       29.88R
JOLIET*        CLOUDY    73  71  93 SW7       29.89R
WAUKEGAN       CLOUDY    75  70  84 SW13G20   29.84R
DUPAGE AIRPORT CLOUDY    73  72  96 SW12      29.87R
WHEELING       CLOUDY    75  72  90 SW10G20   29.87R
MORRIS*        LGT RAIN  72  69  93 SW9       29.89R
LEWIS AIRPORT* CLOUDY    71  67  87 SW9       29.89R
NORTHERLY ISL    N/A     73  67  81 SW7         N/A
$$

WIZ051-052-058>065-066-070>072-220900-
SOUTHEAST WISCONSIN

CITY           SKY/WX    TMP DP  RH WIND       PRES   REMARKS
MILWAUKEE      CLOUDY    75  70  84 SW13      29.81F
KENOSHA*       CLOUDY    73  69  87 W14       29.85R
RACINE*        CLOUDY    73  70  90 SW9       29.84S
WAUKESHA       CLOUDY    70  66  88 W9        29.84R
WEST BEND      CLOUDY    70  64  83 W9G16     29.81F
$$

INZ001>003-010>013-019-020-220900-
NORTHWEST INDIANA

CITY           SKY/WX    TMP DP  RH WIND       PRES   REMARKS
GARY*          CLOUDY    73  69  86 S7        29.87S
MICHIGAN CITY* NOT AVBL
RENSSELAER*    NOT AVBL
VALPARAISO     PTCLDY    72  69  90 S8        29.89F
$$

LMZ740>746-220900-
SOUTHERN LAKE MICHIGAN

STATION/POSITION TIME  SKY/WX   TEMP WIND        PRES    VSBY
                                AIR  DIR/SP/G
                 (UTC)          (F)  (DEG/KT/KT) (MB)    (MI)
HARRISON CRIB    0740            75  220/ 25/ 27   N/A
BURNHAM HARBOR   NOT AVBL
CALUMET HARBOR   0742            73  200/ 11/ 15 1010.8R
BURNS HARBOR     0740            72  190/ 16/ 21 1011.9S
MICHIGAN CITY    0740            72  180/ 16/ 18   N/A
$$

ABBREVIATIONS USED IN REMARKS
   TC - TEMPERATURE IN CELSIUS
  WCI - WIND CHILL INDEX
   HX - HEAT INDEX
  VSB - VISIBILITY
$$




USA.gov is the U.S. government's official web portal to all federal, state and local government web resources and services.